Regional Weather Roundup
Issued by NWS

Home | Current Version | Previous Version | Text Only | Print | Product List | Glossary Off
Versions: 1 2 3 4 5 6 7 8 9 10 11 12 13 14 15 16 17 18 19 20 21 22 23 24 25 26 27 28 29 30 31 32 33 34 35 36 37 38 39 40 41 42 43 44 45 46 47 48 49 50

438
ASUS45 KCYS 190910
RWRWY

WYOMING REGIONAL WEATHER ROUNDUP
NATIONAL WEATHER SERVICE CHEYENNE WY
300 AM MDT SAT AUG 19 2017

NOTE:  "FAIR" INDICATES FEW OR NO CLOUDS BELOW 12,000 FEET
WITH NO SIGNIFICANT WEATHER AND/OR OBSTRUCTIONS TO VISIBILITY.

WYZ001-191000-
YELLOWSTONE NATIONAL PARK

CITY           SKY/WX    TMP DP  RH WIND       PRES   REMARKS
LK YELLOWSTONE   N/A     38  34  85 CALM      30.30F
W YELLOWSTONE  NOT AVBL

$$
WYZ002>013-054>058-071-098>099-191000-
NORTHERN WYOMING

CITY           SKY/WX    TMP DP  RH WIND       PRES   REMARKS
JACKSON        FAIR      42  32  67 N3        30.22F
CODY           FAIR      69  33  26 VRB6      30.04
GREYBULL       FAIR      63  39  41 E6        29.95S
WORLAND        FAIR      60  34  37 S10       29.97S
SHERIDAN       FAIR      53  42  66 CALM      29.92F
BUFFALO        FAIR      69  32  25 W9        30.00F
GILLETTE       FAIR      65  43  44 S17       29.95F
HULETT         FAIR      66  37  34 CALM      29.96S
NEWCASTLE      FAIR      68  37  32 E8        29.99S

$$
WYZ014>020-022>026-101>103-191000-
CENTRAL WYOMING

CITY           SKY/WX    TMP DP  RH WIND       PRES   REMARKS
BIG PINEY      FAIR      42  31  64 E7        30.26S
PINEDALE       FAIR      37  32  81 W8        30.26F WCI  31
DUBOIS         FAIR      46  30  53 W14       30.22F
LANDER           N/A    N/A N/A N/A MISG      30.08S
RIVERTON       FAIR      65  31  28 W17       30.08S
CASPER         FAIR      55  38  52 W6        30.06R
DOUGLAS        FAIR      51  46  83 NW5       30.03S

$$
WYZ021-027>030-104>119-191000-
SOUTHERN WYOMING

CITY           SKY/WX    TMP DP  RH WIND       PRES   REMARKS
EVANSTON       FAIR      54  31  41 SE8       30.28S
KEMMERER         N/A     50  32  50 CALM      30.28S
FORT BRIDGER   FAIR      61  28  28 SW10      30.30R
ROCK SPRINGS   FAIR      60  27  28 SW13      30.23F
RAWLINS        FAIR      60  30  32 W6        30.20F
SARATOGA       FAIR      52  36  54 SE6       30.24F
LARAMIE        FAIR      47  36  65 S10       30.24S
CHEYENNE       FAIR      59  43  55 SW6       30.15S
TORRINGTON     FAIR      64  47  53 S6        30.00S
PINE BLUFFS    FAIR      63  50  63 S10       30.09F

$$




USA.gov is the U.S. government's official web portal to all federal, state and local government web resources and services.